Simultaneous Nadir Overpasses (SNOs) Predictions

Prediction of SNOs between GOES-16 and METOP-B Satellite Orbit:

Table of predicted SNOs for the next 14.0 days since TLE Epoch: 9/4/2020
Index Date Time (GOES-16) GOES-16 Lat,Lon METOP-B Lat,Lon Distance(km) Time Diff (sec)
1 09/05/2020 14:44:10 0.01, -75.18 0.66, -78.11 333.54 80
2 09/06/2020 14:20:51 0.00, -75.17 -0.48, -73.12 234.85 80
3 09/08/2020 02:42:30 -0.01, -75.15 -0.56, -77.71 291.65 80
4 09/09/2020 02:19:10 -0.01, -75.14 0.52, -72.71 276.90 80
5 09/10/2020 14:40:40 0.02, -75.15 0.50, -77.27 241.36 80
6 09/11/2020 14:17:20 0.01, -75.15 -0.65, -72.28 327.33 80
7 09/13/2020 02:39:00 -0.02, -75.12 -0.40, -76.87 198.70 80
8 09/14/2020 02:15:39 -0.02, -75.12 0.69, -71.87 370.13 80
9 09/15/2020 14:37:10 0.02, -75.13 0.32, -76.43 147.52 80
10 09/16/2020 14:13:50 0.02, -75.13 -0.83, -71.44 421.65 80
11 09/18/2020 02:35:29 -0.02, -75.12 -0.22, -76.03 103.35 80
